User: anonymous   Login
Location: Caltech
(34.1382°N, 118.1253°W)
Time: 19:21:42
(UTC-08:00)
Language:

Cosmos 2219 - Orbit

View from above orbital plane
View from above orbital plane
View from above satellite
View from above satellite

Ground track
Ground track

The orbit data is extracted from the following two-line orbital elements,

1 22219U 92076A   14326.16161716 -.00000230  00000-0 -97219-4 0  6597
2 22219 071.0589 357.0133 0017618 013.0843 019.5613 14.13505202135661
Epoch (UTC): 22 November 2014 03:52:43
Eccentricity: 0.0017618
inclination: 71.0589°
perigee height: 834 km
apogee height: 860 km
right ascension of ascending node: 357.0133°
argument of perigee: 13.0843°
revolutions per day: 14.13505202
mean anomaly at epoch: 19.5613°
orbit number at epoch: 13566

The dashed part of the orbit path shows where the satellite is in the earth's shadow,  

DLR